Seattle, WA

10:26 PM PST on January 16, 2017 (GMT -0800)
Renton Municipal

Weather History for KRNT - October, 2013

Change the Weather History Date:

Saturday, October 26, 2013

  Actual Average Record
Temperature  
Mean Temperature 48 °F -  
Max Temperature 53 °F 55 °F 64 °F (1998)
Min Temperature 44 °F 41 °F 33 °F (2007)
Degree Days  
Heating Degree Days 16    
Moisture  
Dew Point 45 °F    
Average Humidity 89    
Maximum Humidity 100    
Minimum Humidity 77    
Precipitation  
Precipitation 0.00 in - - ()
Sea Level Pressure  
Sea Level Pressure 30.31 in    
Wind  
Wind Speed 1 mph (ESE)    
Max Wind Speed 5 mph    
Max Gust Speed -    
Visibility 4 miles    
Events      
Averages and records for this station are not official NWS values.
T = Trace of Precipitation, MM = Missing Value Source: NWS Daily Summary

Daily Weather History Graph

Daily Weather History Graph

Search for Another Location

Airport or City:

Trip Planner

Search our weather history database for the weather conditions in past years. The results will help you decide how hot, cold, wet, or windy it might be!

Date:

Astronomy

Oct. 26, 2013 Rise Set
Actual Time 7:44 AM PDT 6:00 PM PDT
Civil Twilight 7:12 AM PDT 6:32 PM PDT
Nautical Twilight 6:36 AM PDT 7:08 PM PDT
Astronomical Twilight 6:00 AM PDT 7:43 PM PDT
Moon No Moon Rise 2:06 PM PDT (10/26)
Length of Visible Light 11h 19m
Length of Day
10h 16m
Waning Gibbous, 52% of the Moon is Illuminated
Oct 26
Waning Gibbous
Oct 26
Last Quarter
Nov 3
New
Nov 9
First Quarter
Nov 17
Full

Hourly Weather History & Observations

Time (PDT) Temp. Dew Point Humidity Pressure Visibility Wind Dir Wind Speed Gust Speed Precip Events Conditions
12:30 AM 44.6 °F 44.6 °F 100% 30.32 in 2.0 mi Calm Calm - N/A   Overcast
12:36 AM 44.6 °F 44.6 °F 100% 30.32 in 0.8 mi Calm Calm - N/A   Overcast
12:53 AM 44.1 °F 44.1 °F 100% 30.34 in 1.0 mi Calm Calm - N/A   Overcast
1:00 AM 44.6 °F 44.6 °F 100% 30.32 in 1.0 mi Calm Calm - N/A   Overcast
1:07 AM 44.6 °F 44.6 °F 100% 30.32 in 0.8 mi Calm Calm - N/A   Overcast
1:32 AM 44.6 °F 44.6 °F 100% 30.32 in 1.5 mi Calm Calm - N/A   Overcast
1:37 AM 44.6 °F 44.6 °F 100% 30.32 in 2.0 mi Calm Calm - N/A   Overcast
1:48 AM 44.6 °F 44.6 °F 100% 30.33 in 4.0 mi Calm Calm - N/A   Overcast
1:53 AM 44.1 °F 44.1 °F 100% 30.34 in 4.0 mi Calm Calm - N/A   Overcast
2:00 AM 44.6 °F 44.6 °F 100% 30.33 in 4.0 mi Calm Calm - N/A   Overcast
2:53 AM 45.0 °F 44.1 °F 97% 30.35 in 5.0 mi Calm Calm - N/A   Overcast
3:53 AM 46.0 °F 45.0 °F 96% 30.35 in 5.0 mi Calm Calm - N/A   Overcast
4:53 AM 46.9 °F 46.0 °F 97% 30.35 in 5.0 mi Calm Calm - N/A   Overcast
5:53 AM 48.0 °F 46.0 °F 93% 30.34 in 6.0 mi Calm Calm - N/A   Overcast
6:19 AM 48.2 °F 46.4 °F 93% 30.32 in 6.0 mi Calm Calm - N/A   Overcast
6:53 AM 50.0 °F 46.0 °F 86% 30.33 in 6.0 mi Calm Calm - N/A   Overcast
7:43 AM 50.0 °F 46.4 °F 87% 30.31 in 6.0 mi Variable 3.5 mph - N/A   Overcast
7:53 AM 50.0 °F 46.0 °F 86% 30.33 in 6.0 mi Calm Calm - N/A   Overcast
8:53 AM 50.0 °F 46.0 °F 86% 30.35 in 5.0 mi Variable 3.5 mph - N/A   Overcast
9:53 AM 50.0 °F 45.0 °F 83% 30.35 in 5.0 mi Calm Calm - N/A   Haze
10:53 AM 50.0 °F 45.0 °F 83% 30.35 in 5.0 mi Calm Calm - N/A   Haze
11:53 AM 51.1 °F 45.0 °F 80% 30.35 in 6.0 mi Variable 4.6 mph - N/A   Haze
12:53 PM 52.0 °F 45.0 °F 77% 30.34 in 6.0 mi Variable 3.5 mph - N/A   Haze
1:53 PM 53.1 °F 46.0 °F 77% 30.32 in 5.0 mi Variable 3.5 mph - N/A   Haze
2:53 PM 52.0 °F 46.0 °F 80% 30.30 in 5.0 mi Calm Calm - N/A   Haze
3:53 PM 53.1 °F 46.0 °F 77% 30.29 in 5.0 mi Variable 3.5 mph - N/A   Haze
4:53 PM 52.0 °F 45.0 °F 77% 30.28 in 5.0 mi Calm Calm - N/A   Haze
5:53 PM 52.0 °F 45.0 °F 77% 30.28 in 5.0 mi Calm Calm - N/A   Haze
6:53 PM 51.1 °F 45.0 °F 80% 30.27 in 6.0 mi East 4.6 mph - N/A   Haze
7:53 PM 51.1 °F 45.0 °F 80% 30.25 in 6.0 mi Calm Calm - N/A   Haze
8:53 PM 50.0 °F 45.0 °F 83% 30.25 in 6.0 mi Calm Calm - N/A   Haze
9:53 PM 50.0 °F 44.1 °F 80% 30.25 in 6.0 mi SSE 3.5 mph - N/A   Haze
10:53 PM 50.0 °F 45.0 °F 83% 30.23 in 6.0 mi Calm Calm - N/A   Haze
11:53 PM 48.9 °F 45.0 °F 86% 30.22 in 6.0 mi Calm Calm - N/A   Overcast